Location: Kerb�bon
(47.7970°N, 3.3487°W)
Time: 12:22:05
(UTC+00:00)

Cosmos 1538 Rocket - Pass Details

Date: 12 May 2021
Orbit: 752 x 792 km, 74.0° (Epoch: 18 June)

Event Time Altitude Azimuth Distance (km) Brightness Sun altitude
Rises 21:12:29 0° 337° (NNW) 3,299 8.7 -12.9°
Reaches altitude 10° 21:14:53 10° 338° (NNW) 2,362 7.7 -13.1°
Maximum altitude 21:20:17 88° 65° (ENE) 792 4.0 -13.7°
Enters shadow 21:24:05 20° 158° (SSE) 1,758 5.3 -14.2°
